Weather in Berezovo

Russia / Khanty-Mansi Autonomous Okrug — Yugra     63°56′06″N   65°03′13″E
temp.,
°C
wind,
m/s
gust,
m/s
humid.,
%
clouds,
%
prec.,
mm/h
press.,
hPa
HPBL,
m
15 april, thu
thu1523:00+8wsw5159396 0.1 1010557
02:00+7sw6189399 0.0 1006503
05:00+9sw71882100 0.0 1004817
08:00+5n5989100 1.4 1006345
11:00+3nw3977100 2.8 1009791
14:00+2wnw4993100 0.9 1011883
17:00+4wnw51058100 1.1 10131480
20:00+1wnw5116766 0.0 1014473
16 april, fri
fri1623:00−4nw613640 0.0 1017922
02:00−6n596649 0.0 10211089
05:00−6n37635 0.0 1025923
08:00−5nnw23490 0.0 1027759
11:00−3ssw344351 0.0 1026820
14:00+1sw5835100 0.0 10241425
17:00+3wsw51144100 0.0 10212038
20:000w51165100 0.1 1019683
17 april, sat
sat1723:00−3nw713580 0.4 10201075
02:00−4nw713603 0.0 1020915
05:00−6n51055100 0.0 1023852
08:00−7nne3551100 0.0 1024768
11:00−5ne1244100 0.0 1022809
14:00−3sse2342100 0.0 10211062
17:00−3se3445100 0.0 1018769
20:00−3ese5751100 0.0 10141044
18 april, sun
sun1823:00−6e61051100 0.0 1016768
02:00−8ene6104860 0.0 1020748
05:00−9ne510524 0.0 1025841
08:00−9nne58470 0.0 1028923
11:00−7nne57415 0.0 10301244
14:00−5n573799 0.0 10311796
17:00−4n5839100 0.0 10321927
20:00−6n58549 0.0 10331242
19 april, mon
mon1923:00−7n48625 0.0 1034840
02:00−8n37635 0.0 1035588
05:00−9nnw37665 0.0 1035471
08:00−7nnw355530 0.0 1036693
11:00−4nnw344297 0.0 10351201
14:00−2nw3436100 0.0 10331568
17:00−1nw2337100 0.0 10321430
20:00−2nw0146100 0.0 103191